MST,Max TemperatureF,Mean TemperatureF,Min TemperatureF,Max Dew PointF,MeanDew PointF,Min DewpointF,Max Humidity, Mean Humidity, Min Humidity, Max Sea Level PressureIn, Mean Sea Level PressureIn, Min Sea Level PressureIn, Max VisibilityMiles, Mean VisibilityMiles, Min VisibilityMiles, Max Wind SpeedMPH, Mean Wind SpeedMPH, Max Gust SpeedMPH,PrecipitationIn, CloudCover, Events, WindDirDegrees
2012-12-1,38,35,32,34,32,30,96,89,82,29.82,29.77,29.67,,,,16,8,24,0.27,,,149
2012-12-2,37,30,22,34,30,20,100,91,81,29.62,29.44,29.34,,,,21,10,32,0.89,,,143
2012-12-3,32,24,16,23,19,11,92,76,59,,,,,,,10,4,14,0.00,,,152
2012-12-4,39,29,19,34,30,18,92,81,69,30.06,30.01,29.95,,,,15,10,23,0.19,,,150
2012-12-5,40,34,27,35,31,23,100,93,85,30.04,29.96,29.90,,,,13,5,17,0.47,,,130
2012-12-6,33,26,19,22,18,15,92,74,56,30.03,29.98,29.91,,,,10,3,16,0.00,,,128
2012-12-7,30,25,20,21,17,14,88,71,53,29.92,29.86,29.78,,,,13,3,31,0.04,,,137
2012-12-8,24,16,7,20,11,5,91,74,56,30.12,29.95,29.77,,,,9,4,15,0.13,,,320
2012-12-9,16,3,-11,11,2,-14,95,81,67,30.47,30.35,30.14,,,,7,1,9,0.01,,,82
2012-12-10,33,22,11,19,15,10,92,73,54,30.26,30.15,30.07,,,,14,4,21,0.00,,,336
2012-12-11,38,27,15,23,19,14,92,70,48,30.04,29.80,29.51,,,,15,4,23,0.00,,,137
2012-12-12,34,23,11,26,20,9,92,70,47,29.82,29.68,29.44,,,,12,4,17,0.06,,,176
2012-12-13,27,16,4,15,11,4,92,76,60,30.02,29.91,29.82,,,,7,0,8,0.00,,,185
2012-12-14,31,22,12,22,17,10,92,84,75,29.79,29.70,29.59,,,,7,1,,0.02,,,180
2012-12-15,27,19,11,16,12,8,92,74,55,29.81,29.76,29.67,,,,15,3,22,0.00,,,124
2012-12-16,26,20,13,22,15,8,91,71,50,29.81,29.71,29.55,,,,18,6,26,0.18,,,148
2012-12-17,34,26,17,28,17,3,100,73,46,29.74,29.53,29.38,,,,25,9,53,0.39,,,256
2012-12-18,19,6,-8,11,-2,-12,95,72,49,30.08,29.91,29.74,,,,13,3,21,0.01,,,130
2012-12-19,13,-1,-16,2,-7,-19,87,73,58,30.44,30.28,30.09,,,,7,1,10,0.00,,,143
2012-12-20,30,16,2,15,6,0,87,61,34,30.31,30.12,29.95,,,,21,11,30,0.00,,,150
2012-12-21,36,29,22,12,9,6,43,38,32,29.94,29.88,29.81,,,,15,9,21,0.00,,,149
2012-12-22,31,26,20,23,17,10,88,66,43,29.86,29.78,29.68,,,,15,9,27,0.22,,,150
2012-12-23,26,16,6,21,14,4,92,77,62,30.04,29.87,29.67,,,,15,6,24,0.13,,,145
2012-12-24,26,13,0,24,14,-1,100,80,60,30.17,29.89,29.66,,,,14,3,21,0.27,,,299
2012-12-25,22,5,-12,10,0,-14,95,76,56,30.26,30.10,29.85,,,,16,4,23,0.00,,,147
2012-12-26,20,10,0,13,8,-2,95,81,67,29.85,29.76,29.68,,,,8,0,10,0.00,,,-1
2012-12-27,27,16,5,15,10,5,92,71,50,30.11,29.94,29.80,,,,10,1,15,0.00,,,318
2012-12-28,23,10,-4,10,3,-6,96,79,62,30.30,30.19,30.10,,,,7,1,9,0.00,,,126
2012-12-29,13,1,-12,8,-3,-14,92,80,67,30.35,30.21,30.07,,,,5,0,6,0.04,,,-1
2012-12-30,17,3,-11,5,-3,-12,91,79,67,30.34,30.19,30.07,,,,7,1,8,0.01,,,102
2012-12-31,17,4,-10,3,-5,-13,95,77,59,30.41,30.33,30.24,,,,6,1,8,0.00,,,127